Sussex, NJ

6:58 AM EDT on March 30, 2017 (GMT -0400)
Sussex

Weather History for KFWN - June, 2014

Change the Weather History Date:

Saturday, June 7, 2014

  Actual Average Record
Temperature  
Mean Temperature 65 °F -  
Max Temperature 82 °F 73 °F 93 °F (2008)
Min Temperature 48 °F 51 °F 36 °F (1958)
Growing Degree Days 15 (Base 50)    
Moisture  
Dew Point 52 °F    
Average Humidity 64    
Maximum Humidity 90    
Minimum Humidity 33    
Precipitation  
Precipitation 0.00 in - - ()
Sea Level Pressure  
Sea Level Pressure 29.98 in    
Wind  
Wind Speed 1 mph (NNE)    
Max Wind Speed 9 mph    
Max Gust Speed -    
Visibility 10 miles    
Events      
Averages and records for this station are not official NWS values.
T = Trace of Precipitation, MM = Missing Value Source: NWS Daily Summary

Daily Weather History Graph

Daily Weather History Graph

Search for Another Location

Airport or City:

Trip Planner

Search our weather history database for the weather conditions in past years. The results will help you decide how hot, cold, wet, or windy it might be!

Date:

Astronomy

Jun. 07, 2014 Rise Set
Actual Time 5:25 AM EDT 8:29 PM EDT
Civil Twilight 4:52 AM EDT 9:02 PM EDT
Nautical Twilight 4:10 AM EDT 9:45 PM EDT
Astronomical Twilight 3:19 AM EDT 10:35 PM EDT
Moon 2:41 PM EDT (6/7) 1:49 AM EDT (6/7)
Length of Visible Light 16h 09m
Length of Day
15h 03m
Waxing Gibbous, 67% of the Moon is Illuminated
Jun 7
Waxing Gibbous
Jun 13
Full
Jun 19
Last Quarter
Jun 27
New
Jul 5
First Quarter

Hourly Weather History & Observations

Time (EDT) Temp. Heat Index Dew Point Humidity Pressure Visibility Wind Dir Wind Speed Gust Speed Precip Events Conditions
12:53 AM 54.0 °F - 50.0 °F 86% 29.97 in 10.0 mi Calm Calm - N/A   Clear
1:53 AM 52.0 °F - 48.9 °F 89% 29.98 in 10.0 mi Calm Calm - N/A   Clear
2:53 AM 52.0 °F - 48.9 °F 89% 29.98 in 10.0 mi Calm Calm - N/A   Clear
3:53 AM 50.0 °F - 46.9 °F 89% 29.98 in 10.0 mi Calm Calm - N/A   Clear
4:53 AM 48.9 °F - 46.0 °F 90% 29.99 in 3.0 mi Calm Calm - N/A   Clear
5:53 AM 48.9 °F - 46.0 °F 90% 30.00 in 5.0 mi Calm Calm - N/A   Clear
6:53 AM 53.1 °F - 50.0 °F 89% 30.01 in 10.0 mi Calm Calm - N/A   Clear
7:53 AM 61.0 °F - 54.0 °F 78% 30.02 in 10.0 mi Calm Calm - N/A   Clear
9:53 AM 73.0 °F - 54.0 °F 51% 30.01 in 10.0 mi ENE 9.2 mph - N/A   Clear
10:53 AM 75.0 °F - 55.0 °F 50% 30.01 in 10.0 mi Calm Calm - N/A   Clear
11:53 AM 75.9 °F - 54.0 °F 46% 30.01 in 10.0 mi East 5.8 mph - N/A   Scattered Clouds
12:53 PM 79.0 °F - 53.1 °F 40% 30.01 in 10.0 mi North - - N/A   Clear
1:53 PM 80.1 °F 79.9 °F 53.1 °F 39% 29.99 in 10.0 mi Variable 3.5 mph - N/A   Mostly Cloudy
2:53 PM 82.0 °F - 52.0 °F 35% 29.97 in 10.0 mi Variable 5.8 mph - N/A   Scattered Clouds
3:53 PM 82.9 °F 81.8 °F 53.1 °F 36% 29.95 in 10.0 mi NE 3.5 mph - N/A   Partly Cloudy
4:53 PM 82.0 °F - 50.0 °F 33% 29.93 in 10.0 mi NW 4.6 mph - N/A   Partly Cloudy
5:53 PM 82.9 °F - 51.1 °F 33% 29.92 in 10.0 mi NNE 5.8 mph - N/A   Clear
6:53 PM 82.0 °F - 52.0 °F 35% 29.92 in 10.0 mi Calm Calm - N/A   Clear
7:53 PM 75.0 °F - 59.0 °F 57% 29.93 in 10.0 mi Calm Calm - N/A   Clear
8:53 PM 68.0 °F - 57.0 °F 68% 29.94 in 10.0 mi West 3.5 mph - N/A   Clear
9:53 PM 64.0 °F - 55.9 °F 75% 29.97 in 10.0 mi Calm Calm - N/A   Scattered Clouds
10:53 PM 61.0 °F - 55.0 °F 81% 29.97 in 10.0 mi Calm Calm - N/A   Clear
11:53 PM 60.1 °F - 55.0 °F 83% 29.97 in 10.0 mi Calm Calm - N/A   Clear